| time (UTC) | temp F | wind direction | speed MPH | gust MPH | rain 1hr in | rain 24hr in | rain mn in | humidity % | barometer mb |
| 20260507021015 | 59 | 270 | 3.0 | 3.0 | 126.13 | 0.00 | 0.23 | 98 | 1006.4 |
| 20260507020515 | 59 | 304 | 2.0 | 4.0 | 126.13 | 0.00 | 0.23 | 97 | 1006.3 |
| 20260507020015 | 59 | 256 | 1.0 | 2.0 | 126.13 | 0.00 | 0.23 | 97 | 1006.2 |
| 20260507015515 | 59 | 288 | 0.0 | 3.0 | 126.13 | 0.00 | 0.23 | 97 | 1006.2 |
| 20260507015014 | 59 | 198 | 1.0 | 4.0 | 126.13 | 0.00 | 0.23 | 97 | 1006.3 |
| 20260507014515 | 59 | 240 | 0.0 | 3.0 | 126.13 | 0.00 | 0.23 | 97 | 1006.3 |
| 20260507014014 | 59 | 263 | 0.0 | 3.0 | 126.13 | 0.00 | 0.23 | 97 | 1006.3 |
| 20260507013515 | 59 | 229 | 1.0 | 2.0 | 126.13 | 0.00 | 0.23 | 97 | 1006.3 |
| 20260507013015 | 59 | 300 | 0.0 | 1.0 | 126.13 | 0.00 | 0.23 | 97 | 1006.4 |
| 20260507012514 | 59 | 211 | 0.0 | 4.0 | 126.13 | 0.00 | 0.23 | 97 | 1006.3 |
| 20260507012014 | 59 | 201 | 0.0 | 6.0 | 126.13 | 0.00 | 0.23 | 97 | 1006.3 |
| 20260507011515 | 59 | 204 | 2.0 | 6.0 | 126.13 | 0.00 | 0.23 | 97 | 1006.4 |
| 20260507011014 | 59 | 210 | 3.0 | 5.0 | 126.13 | 0.00 | 0.23 | 97 | 1006.3 |
| 20260507010516 | 59 | 205 | 0.0 | 6.0 | 126.13 | 0.00 | 0.23 | 97 | 1006.2 |
| 20260507010015 | 59 | 198 | 0.0 | 8.0 | 126.13 | 0.00 | 0.23 | 97 | 1006.3 |
| 20260507005514 | 59 | 191 | 1.0 | 8.0 | 126.13 | 0.00 | 0.23 | 97 | 1006.3 |
| 20260507005015 | 59 | 186 | 4.0 | 8.0 | 126.13 | 0.00 | 0.23 | 97 | 1006.3 |
| 20260507004515 | 59 | 159 | 1.0 | 10.0 | 126.13 | 0.00 | 0.23 | 97 | 1006.4 |
| 20260507004014 | 59 | 236 | 2.0 | 11.0 | 126.13 | 0.00 | 0.23 | 97 | 1006.2 |
| 20260507003514 | 59 | 193 | 7.0 | 11.0 | 126.13 | 0.00 | 0.23 | 97 | 1006.2 |
| 20260507003015 | 59 | 194 | 4.0 | 5.0 | 126.13 | 0.00 | 0.23 | 97 | 1006.2 |
| 20260507002515 | 59 | 195 | 2.0 | 11.0 | 126.13 | 0.00 | 0.23 | 97 | 1006.2 |
| 20260507002014 | 59 | 197 | 2.0 | 11.0 | 126.12 | 0.00 | 0.22 | 97 | 1006.1 |
| 20260507001515 | 59 | 186 | 6.0 | 10.0 | 126.12 | 0.00 | 0.22 | 97 | 1006.1 |
| 20260507001015 | 59 | 204 | 2.0 | 11.0 | 126.12 | 0.00 | 0.22 | 97 | 1006.0 |
| 20260507000516 | 59 | 195 | 1.0 | 8.0 | 126.12 | 0.00 | 0.22 | 97 | 1006.1 |
| 20260507000015 | 59 | 187 | 3.0 | 7.0 | 126.12 | 0.00 | 0.22 | 97 | 1006.2 |
| 20260506235514 | 59 | 205 | 1.0 | 10.0 | 126.12 | 0.00 | 0.22 | 97 | 1006.1 |
| 20260506235015 | 59 | 159 | 5.0 | 7.0 | 126.12 | 0.00 | 0.22 | 97 | 1006.1 |
| 20260506234515 | 59 | 167 | 3.0 | 10.0 | 126.12 | 0.00 | 0.22 | 97 | 1006.0 |
| 20260506234014 | 59 | 173 | 5.0 | 8.0 | 126.12 | 0.00 | 0.22 | 97 | 1006.0 |
| 20260506233516 | 59 | 226 | 3.0 | 8.0 | 126.12 | 0.00 | 0.22 | 97 | 1005.9 |
| 20260506233016 | 59 | 190 | 3.0 | 6.0 | 126.12 | 0.00 | 0.22 | 97 | 1005.9 |
| 20260506232514 | 59 | 173 | 1.0 | 14.0 | 126.12 | 0.00 | 0.22 | 97 | 1005.9 |
| 20260506232015 | 59 | 186 | 2.0 | 8.0 | 126.12 | 0.00 | 0.22 | 97 | 1005.9 |
| 20260506231515 | 59 | 180 | 3.0 | 7.0 | 126.12 | 0.00 | 0.22 | 97 | 1005.9 |
| 20260506231016 | 59 | 176 | 3.0 | 11.0 | 126.12 | 0.00 | 0.22 | 97 | 1006.0 |
| 20260506230015 | 59 | 246 | 5.0 | 10.0 | 126.12 | 0.00 | 0.22 | 97 | 1006.1 |
| 20260506225514 | 59 | 179 | 2.0 | 8.0 | 126.12 | 0.00 | 0.22 | 97 | 1006.0 |
| 20260506224515 | 60 | 200 | 2.0 | 10.0 | 126.10 | 0.00 | 0.20 | 97 | 1006.1 |
| 20260506224014 | 59 | 191 | 5.0 | 7.0 | 126.09 | 0.00 | 0.19 | 97 | 1006.1 |
| 20260506223515 | 60 | 172 | 2.0 | 9.0 | 126.09 | 0.00 | 0.19 | 97 | 1006.2 |
| 20260506223015 | 60 | 255 | 5.0 | 10.0 | 126.08 | 0.00 | 0.18 | 96 | 1006.1 |
| 20260506222514 | 60 | 158 | 5.0 | 11.0 | 126.08 | 0.00 | 0.18 | 96 | 1006.0 |
| 20260506222014 | 60 | 229 | 5.0 | 10.0 | 126.07 | 0.00 | 0.17 | 96 | 1006.2 |
| 20260506221515 | 60 | 233 | 6.0 | 11.0 | 126.06 | 0.00 | 0.16 | 96 | 1006.3 |
| 20260506221014 | 60 | 200 | 8.0 | 10.0 | 126.06 | 0.00 | 0.16 | 96 | 1006.4 |
| 20260506220514 | 60 | 187 | 6.0 | 9.0 | 126.06 | 0.00 | 0.16 | 96 | 1006.4 |
| 20260506220015 | 60 | 190 | 5.0 | 10.0 | 126.05 | 0.00 | 0.15 | 96 | 1006.4 |
| 20260506215514 | 60 | 201 | 6.0 | 8.0 | 126.04 | 0.00 | 0.14 | 96 | 1006.4 |
| 20260506215014 | 60 | 174 | 3.0 | 8.0 | 126.04 | 0.00 | 0.14 | 96 | 1006.4 |
| 20260506214516 | 60 | 177 | 5.0 | 11.0 | 126.04 | 0.00 | 0.14 | 95 | 1006.4 |
| 20260506214014 | 60 | 195 | 5.0 | 11.0 | 126.03 | 0.00 | 0.13 | 95 | 1006.5 |
| 20260506213514 | 60 | 181 | 6.0 | 11.0 | 126.03 | 0.00 | 0.13 | 95 | 1006.4 |
| 20260506213015 | 60 | 194 | 8.0 | 15.0 | 126.02 | 0.00 | 0.12 | 95 | 1006.4 |
| 20260506212514 | 60 | 176 | 7.0 | 14.0 | 126.02 | 0.00 | 0.12 | 95 | 1006.5 |
| 20260506212014 | 60 | 228 | 3.0 | 13.0 | 126.02 | 0.00 | 0.12 | 95 | 1006.5 |
| 20260506211515 | 60 | 160 | 6.0 | 12.0 | 126.02 | 0.00 | 0.12 | 95 | 1006.5 |
| 20260506211015 | 60 | 149 | 6.0 | 10.0 | 126.02 | 0.00 | 0.12 | 95 | 1006.6 |
| 20260506210515 | 60 | 180 | 6.0 | 13.0 | 126.02 | 0.00 | 0.12 | 95 | 1006.8 |
| 20260506210015 | 61 | 165 | 7.0 | 14.0 | 126.02 | 0.00 | 0.12 | 95 | 1006.7 |
| 20260506205514 | 61 | 172 | 5.0 | 11.0 | 126.02 | 0.00 | 0.12 | 95 | 1006.8 |
| 20260506204515 | 61 | 180 | 5.0 | 13.0 | 126.01 | 0.00 | 0.11 | 94 | 1006.9 |
| 20260506203514 | 61 | 191 | 7.0 | 10.0 | 126.01 | 0.00 | 0.11 | 94 | 1007.0 |
| 20260506203015 | 61 | 210 | 3.0 | 9.0 | 126.00 | 0.00 | 0.10 | 93 | 1007.1 |
| 20260506202517 | 61 | 181 | 4.0 | 10.0 | 126.00 | 0.00 | 0.10 | 93 | 1007.0 |
| 20260506202015 | 61 | 195 | 3.0 | 12.0 | 125.99 | 0.00 | 0.09 | 92 | 1007.0 |
| 20260506201517 | 62 | 187 | 4.0 | 14.0 | 125.99 | 0.00 | 0.09 | 92 | 1007.1 |
| 20260506201014 | 62 | 212 | 4.0 | 15.0 | 125.98 | 0.00 | 0.08 | 91 | 1006.9 |
| 20260506200516 | 62 | 217 | 5.0 | 11.0 | 125.98 | 0.00 | 0.08 | 91 | 1007.0 |
| 20260506200015 | 62 | 174 | 7.0 | 13.0 | 125.98 | 0.00 | 0.08 | 90 | 1007.1 |
| 20260506195514 | 62 | 203 | 1.0 | 12.0 | 125.97 | 0.00 | 0.07 | 90 | 1007.1 |
| 20260506195014 | 62 | 224 | 7.0 | 9.0 | 125.97 | 0.00 | 0.07 | 90 | 1007.3 |
| 20260506194515 | 62 | 188 | 4.0 | 13.0 | 125.97 | 0.00 | 0.07 | 90 | 1007.1 |
| 20260506193514 | 63 | 215 | 4.0 | 8.0 | 125.97 | 0.00 | 0.07 | 90 | 1007.2 |
| 20260506193016 | 63 | 219 | 3.0 | 9.0 | 125.97 | 0.00 | 0.07 | 90 | 1007.1 |
| 20260506192515 | 63 | 208 | 3.0 | 15.0 | 125.97 | 0.00 | 0.07 | 90 | 1007.1 |
| 20260506191517 | 63 | 210 | 2.0 | 8.0 | 125.97 | 0.00 | 0.07 | 91 | 1007.1 |
| 20260506191015 | 63 | 193 | 3.0 | 10.0 | 125.96 | 0.00 | 0.06 | 91 | 1007.1 |
| 20260506190014 | 63 | 195 | 4.0 | 5.0 | 125.96 | 0.00 | 0.06 | 90 | 1007.0 |
| 20260506185514 | 63 | 270 | 2.0 | 1.0 | 125.96 | 0.00 | 0.06 | 90 | 1007.1 |
| 20260506185014 | 63 | 225 | 1.0 | 6.0 | 125.95 | 0.00 | 0.05 | 88 | 1007.2 |
| 20260506184514 | 63 | 228 | 2.0 | 7.0 | 125.95 | 0.00 | 0.05 | 88 | 1007.2 |
| 20260506184014 | 63 | 291 | 2.0 | 10.0 | 125.94 | 0.00 | 0.04 | 87 | 1007.3 |
| 20260506183515 | 64 | 274 | 6.0 | 8.0 | 125.94 | 0.00 | 0.04 | 86 | 1007.5 |
| 20260506183015 | 64 | 288 | 3.0 | 8.0 | 125.93 | 0.00 | 0.03 | 84 | 1007.4 |
| 20260506182514 | 65 | 302 | 4.0 | 10.0 | 125.93 | 0.00 | 0.03 | 82 | 1007.5 |
| 20260506182014 | 65 | 276 | 3.0 | 6.0 | 125.92 | 0.00 | 0.02 | 81 | 1007.7 |
| 20260506181514 | 66 | 297 | 3.0 | 9.0 | 125.92 | 0.00 | 0.02 | 77 | 1007.7 |
| 20260506181014 | 67 | 277 | 3.0 | 8.0 | 125.91 | 0.00 | 0.01 | 72 | 1007.7 |
| 20260506180514 | 68 | 294 | 5.0 | 11.0 | 125.90 | 0.00 | 0.00 | 67 | 1007.7 |
| 20260506180015 | 69 | 290 | 3.0 | 15.0 | 125.90 | 0.00 | 0.00 | 65 | 1007.5 |
| 20260506175514 | 69 | 214 | 6.0 | 9.0 | 125.90 | 0.00 | 0.00 | 62 | 1007.6 |
| 20260506175014 | 69 | 176 | 4.0 | 13.0 | 125.90 | 0.00 | 0.00 | 60 | 1007.5 |
| 20260506174515 | 70 | 190 | 6.0 | 15.0 | 125.90 | 0.00 | 0.00 | 61 | 1007.5 |
| 20260506174014 | 70 | 267 | 3.0 | 7.0 | 125.90 | 0.00 | 0.00 | 58 | 1007.5 |
| 20260506173514 | 70 | 260 | 4.0 | 11.0 | 125.90 | 0.00 | 0.00 | 57 | 1007.4 |
| 20260506173014 | 71 | 136 | 5.0 | 11.0 | 125.90 | 0.00 | 0.00 | 56 | 1007.4 |
| 20260506172514 | 71 | 246 | 5.0 | 16.0 | 125.90 | 0.00 | 0.00 | 55 | 1007.4 |
| 20260506172014 | 72 | 173 | 5.0 | 17.0 | 125.90 | 0.00 | 0.00 | 53 | 1007.4 |
| 20260506171514 | 72 | 156 | 6.0 | 34.0 | 125.90 | 0.00 | 0.00 | 52 | 1007.5 |
| 20260506171014 | 72 | 183 | 11.0 | 42.0 | 125.90 | 0.00 | 0.00 | 51 | 1007.3 |
| 20260506170514 | 73 | 229 | 8.0 | 19.0 | 125.90 | 0.00 | 0.00 | 50 | 1007.4 |
| 20260506170015 | 73 | 166 | 10.0 | 19.0 | 125.90 | 0.00 | 0.00 | 51 | 1007.3 |
| 20260506165514 | 73 | 146 | 7.0 | 17.0 | 125.90 | 0.00 | 0.00 | 51 | 1007.4 |
| 20260506165014 | 72 | 203 | 2.0 | 18.0 | 125.90 | 0.00 | 0.00 | 53 | 1007.6 |
| 20260506164517 | 72 | 169 | 4.0 | 23.0 | 125.90 | 0.00 | 0.00 | 57 | 1007.6 |
| 20260506164014 | 71 | 146 | 3.0 | 15.0 | 125.90 | 0.00 | 0.00 | 55 | 1007.8 |
| 20260506163514 | 71 | 212 | 6.0 | 18.0 | 125.90 | 0.00 | 0.00 | 55 | 1007.9 |
| 20260506163014 | 71 | 200 | 7.0 | 10.0 | 125.90 | 0.00 | 0.00 | 57 | 1007.9 |
| 20260506162514 | 71 | 194 | 4.0 | 16.0 | 125.90 | 0.00 | 0.00 | 57 | 1008.0 |
| 20260506162015 | 70 | 221 | 5.0 | 18.0 | 125.90 | 0.00 | 0.00 | 57 | 1008.1 |
| 20260506161514 | 70 | 215 | 3.0 | 12.0 | 125.90 | 0.00 | 0.00 | 58 | 1008.1 |
| 20260506161014 | 70 | 204 | 7.0 | 14.0 | 125.90 | 0.00 | 0.00 | 57 | 1008.3 |
| 20260506160514 | 70 | 180 | 5.0 | 15.0 | 125.90 | 0.00 | 0.00 | 57 | 1008.3 |
| 20260506160014 | 70 | 180 | 6.0 | 15.0 | 125.90 | 0.00 | 0.00 | 59 | 1008.4 |
| 20260506155514 | 70 | 190 | 8.0 | 12.0 | 125.90 | 0.00 | 0.00 | 59 | 1008.5 |
| 20260506155013 | 70 | 169 | 5.0 | 7.0 | 125.90 | 0.00 | 0.00 | 61 | 1008.6 |
| 20260506154515 | 70 | 201 | 5.0 | 14.0 | 125.90 | 0.00 | 0.00 | 61 | 1008.7 |
| 20260506154013 | 69 | 170 | 8.0 | 13.0 | 125.90 | 0.00 | 0.00 | 60 | 1008.8 |
| 20260506153513 | 69 | 200 | 3.0 | 15.0 | 125.90 | 0.00 | 0.00 | 62 | 1008.8 |
| 20260506153014 | 69 | 235 | 5.0 | 9.0 | 125.90 | 0.00 | 0.00 | 62 | 1008.9 |
| 20260506152514 | 69 | 172 | 4.0 | 10.0 | 125.90 | 0.00 | 0.00 | 62 | 1009.0 |
| 20260506152015 | 69 | 186 | 6.0 | 14.0 | 125.90 | 0.00 | 0.00 | 61 | 1009.1 |
| 20260506151514 | 69 | 145 | 6.0 | 15.0 | 125.90 | 0.00 | 0.00 | 62 | 1009.2 |
| 20260506151014 | 69 | 188 | 8.0 | 14.0 | 125.90 | 0.00 | 0.00 | 62 | 1009.2 |
| 20260506150513 | 69 | 184 | 7.0 | 17.0 | 125.90 | 0.00 | 0.00 | 61 | 1009.3 |
| 20260506150014 | 69 | 187 | 2.0 | 16.0 | 125.90 | 0.00 | 0.00 | 62 | 1009.4 |
| 20260506145513 | 68 | 212 | 9.0 | 19.0 | 125.90 | 0.00 | 0.00 | 63 | 1009.2 |
| 20260506145013 | 68 | 200 | 5.0 | 8.0 | 125.90 | 0.00 | 0.00 | 64 | 1009.2 |
| 20260506144515 | 68 | 193 | 6.0 | 18.0 | 125.90 | 0.00 | 0.00 | 64 | 1009.5 |
| 20260506144013 | 68 | 198 | 9.0 | 20.0 | 125.90 | 0.00 | 0.00 | 64 | 1009.5 |
| 20260506143016 | 68 | 173 | 6.0 | 17.0 | 125.90 | 0.00 | 0.00 | 64 | 1009.4 |
| 20260506141516 | 67 | 166 | 5.0 | 22.0 | 125.90 | 0.00 | 0.00 | 66 | 1009.2 |
| 20260506140514 | 68 | 204 | 6.0 | 12.0 | 125.90 | 0.00 | 0.00 | 65 | 1009.1 |
| 20260506140015 | 68 | 165 | 8.0 | 19.0 | 125.90 | 0.00 | 0.00 | 64 | 1008.9 |
| 20260506135513 | 67 | 180 | 7.0 | 16.0 | 125.90 | 0.00 | 0.00 | 66 | 1009.0 |
| 20260506135013 | 67 | 191 | 4.0 | 14.0 | 125.90 | 0.00 | 0.00 | 67 | 1009.2 |
| 20260506134516 | 67 | 228 | 4.0 | 12.0 | 125.90 | 0.00 | 0.00 | 68 | 1009.1 |
| 20260506133514 | 66 | 177 | 5.0 | 16.0 | 125.90 | 0.00 | 0.00 | 69 | 1009.3 |
| 20260506133017 | 66 | 156 | 10.0 | 16.0 | 125.90 | 0.00 | 0.00 | 68 | 1009.4 |
| 20260506132513 | 66 | 180 | 5.0 | 14.0 | 125.90 | 0.00 | 0.00 | 70 | 1009.5 |
| 20260506132013 | 65 | 190 | 7.0 | 14.0 | 125.90 | 0.00 | 0.00 | 70 | 1009.5 |
| 20260506131514 | 65 | 162 | 8.0 | 14.0 | 125.90 | 0.00 | 0.00 | 71 | 1009.7 |
| 20260506131013 | 65 | 221 | 6.0 | 15.0 | 125.90 | 0.00 | 0.00 | 72 | 1009.8 |
| 20260506130513 | 64 | 195 | 4.0 | 9.0 | 125.90 | 0.00 | 0.00 | 73 | 1009.8 |
| 20260506130016 | 64 | 201 | 3.0 | 17.0 | 125.90 | 0.00 | 0.00 | 72 | 1009.8 |
| 20260506125513 | 64 | 169 | 6.0 | 16.0 | 125.90 | 0.00 | 0.00 | 73 | 1009.7 |
| 20260506124517 | 64 | 208 | 6.0 | 16.0 | 125.90 | 0.00 | 0.00 | 73 | 1009.8 |
| 20260506124013 | 64 | 177 | 8.0 | 18.0 | 125.90 | 0.00 | 0.00 | 72 | 1009.8 |
| 20260506123513 | 64 | 200 | 10.0 | 15.0 | 125.90 | 0.00 | 0.00 | 72 | 1009.7 |
| 20260506123014 | 64 | 197 | 4.0 | 16.0 | 125.90 | 0.00 | 0.00 | 73 | 1009.6 |
| 20260506122514 | 63 | 179 | 5.0 | 15.0 | 125.90 | 0.00 | 0.00 | 75 | 1009.4 |
| 20260506121519 | 63 | 232 | 6.0 | 13.0 | 125.90 | 0.00 | 0.00 | 75 | 1009.6 |
| 20260506120513 | 62 | 205 | 10.0 | 19.0 | 125.90 | 0.00 | 0.00 | 75 | 1010.0 |
| 20260506120014 | 62 | 188 | 6.0 | 13.0 | 125.90 | 0.00 | 0.00 | 76 | 1009.8 |
| 20260506115514 | 62 | 224 | 4.0 | 10.0 | 125.90 | 0.00 | 0.00 | 77 | 1009.8 |
| 20260506114515 | 61 | 195 | 7.0 | 11.0 | 125.90 | 0.00 | 0.00 | 79 | 1010.0 |
| 20260506114013 | 61 | 233 | 6.0 | 9.0 | 125.90 | 0.00 | 0.00 | 79 | 1010.0 |
| 20260506113513 | 61 | 169 | 3.0 | 11.0 | 125.90 | 0.00 | 0.00 | 78 | 1010.0 |
| 20260506113014 | 61 | 172 | 4.0 | 12.0 | 125.90 | 0.00 | 0.00 | 79 | 1010.1 |
| 20260506112513 | 61 | 204 | 8.0 | 11.0 | 125.90 | 0.00 | 0.00 | 79 | 1010.0 |
| 20260506112013 | 61 | 207 | 5.0 | 11.0 | 125.90 | 0.00 | 0.00 | 79 | 1010.2 |
| 20260506111514 | 61 | 181 | 6.0 | 11.0 | 125.90 | 0.00 | 0.00 | 79 | 1010.2 |
| 20260506110513 | 61 | 211 | 3.0 | 12.0 | 125.90 | 0.00 | 0.00 | 80 | 1010.3 |
| 20260506110014 | 60 | 174 | 6.0 | 11.0 | 125.90 | 0.00 | 0.00 | 79 | 1010.0 |
| 20260506105013 | 60 | 240 | 2.0 | 10.0 | 125.90 | 0.00 | 0.00 | 81 | 1010.1 |
| 20260506104514 | 60 | 193 | 4.0 | 11.0 | 125.90 | 0.00 | 0.00 | 81 | 1010.2 |
| 20260506104013 | 59 | 219 | 5.0 | 14.0 | 125.90 | 0.00 | 0.00 | 81 | 1010.2 |
| 20260506103014 | 59 | 207 | 6.0 | 11.0 | 125.90 | 0.00 | 0.00 | 81 | 1010.1 |
| 20260506102014 | 59 | 249 | 6.0 | 8.0 | 125.90 | 0.00 | 0.00 | 81 | 1010.1 |
| 20260506101514 | 59 | 191 | 4.0 | 12.0 | 125.90 | 0.00 | 0.00 | 81 | 1010.0 |
| 20260506101013 | 59 | 197 | 6.0 | 13.0 | 125.90 | 0.00 | 0.00 | 81 | 1010.0 |
| 20260506100017 | 59 | 207 | 6.0 | 11.0 | 125.90 | 0.00 | 0.00 | 80 | 1010.1 |
| 20260506095513 | 59 | 214 | 7.0 | 11.0 | 125.90 | 0.00 | 0.00 | 80 | 1010.1 |
| 20260506094514 | 59 | 228 | 3.0 | 10.0 | 125.90 | 0.00 | 0.00 | 81 | 1010.0 |
| 20260506094013 | 59 | 205 | 1.0 | 9.0 | 125.90 | 0.00 | 0.00 | 80 | 1010.1 |
| 20260506093513 | 59 | 212 | 2.0 | 11.0 | 125.90 | 0.00 | 0.00 | 80 | 1009.9 |
| 20260506093016 | 59 | 191 | 7.0 | 11.0 | 125.90 | 0.00 | 0.00 | 80 | 1009.9 |
| 20260506091514 | 59 | 162 | 3.0 | 12.0 | 125.90 | 0.00 | 0.00 | 80 | 1010.1 |
| 20260506091013 | 59 | 135 | 6.0 | 10.0 | 125.90 | 0.00 | 0.00 | 80 | 1010.0 |
| 20260506090513 | 59 | 218 | 3.0 | 13.0 | 125.90 | 0.00 | 0.00 | 80 | 1009.9 |
| 20260506090014 | 59 | 191 | 4.0 | 10.0 | 125.90 | 0.00 | 0.00 | 80 | 1010.0 |
| 20260506085513 | 59 | 205 | 4.0 | 10.0 | 125.90 | 0.00 | 0.00 | 79 | 1010.0 |
| 20260506085013 | 59 | 233 | 5.0 | 11.0 | 125.90 | 0.00 | 0.00 | 79 | 1010.0 |
| 20260506084514 | 59 | 183 | 5.0 | 10.0 | 125.90 | 0.00 | 0.00 | 79 | 1010.0 |
| 20260506084013 | 59 | 179 | 5.0 | 10.0 | 125.90 | 0.00 | 0.00 | 78 | 1010.1 |
| 20260506083514 | 60 | 224 | 2.0 | 8.0 | 125.90 | 0.00 | 0.00 | 78 | 1010.1 |
| 20260506083014 | 59 | 255 | 3.0 | 8.0 | 125.90 | 0.00 | 0.00 | 78 | 1010.1 |
| 20260506082513 | 60 | 197 | 1.0 | 9.0 | 125.90 | 0.00 | 0.00 | 78 | 1010.0 |
| 20260506082013 | 60 | 166 | 3.0 | 9.0 | 125.90 | 0.00 | 0.00 | 77 | 1010.0 |
| 20260506081514 | 60 | 191 | 2.0 | 7.0 | 125.90 | 0.00 | 0.00 | 77 | 1010.0 |
| 20260506081013 | 60 | 179 | 3.0 | 10.0 | 125.90 | 0.00 | 0.00 | 77 | 1010.0 |
| 20260506080514 | 60 | 183 | 4.0 | 8.0 | 125.90 | 0.00 | 0.00 | 76 | 1010.0 |
| 20260506073513 | 60 | 188 | 7.0 | 9.0 | 125.90 | 0.00 | 0.00 | 76 | 1010.0 |
| 20260506073013 | 60 | 204 | 5.0 | 9.0 | 125.90 | 0.00 | 0.00 | 75 | 1010.0 |
| 20260506072513 | 60 | 222 | 4.0 | 9.0 | 125.90 | 0.00 | 0.00 | 74 | 1010.0 |
| 20260506072013 | 60 | 153 | 4.0 | 9.0 | 125.90 | 0.00 | 0.00 | 73 | 1009.9 |
| 20260506071513 | 60 | 225 | 5.0 | 9.0 | 125.90 | 0.00 | 0.00 | 73 | 1009.9 |
| 20260506071013 | 61 | 173 | 4.0 | 6.0 | 125.90 | 0.00 | 0.00 | 73 | 1009.9 |
| 20260506070513 | 61 | 169 | 2.0 | 7.0 | 125.90 | 0.00 | 0.00 | 72 | 1009.8 |
| 20260506062513 | 62 | 146 | 4.0 | 9.0 | 125.90 | 0.00 | 0.00 | 68 | 1009.7 |
| 20260506062013 | 62 | 231 | 5.0 | 8.0 | 125.90 | 0.00 | 0.00 | 68 | 1009.7 |
| 20260506061513 | 62 | 211 | 2.0 | 10.0 | 125.90 | 0.00 | 0.00 | 68 | 1009.7 |
| 20260506061013 | 62 | 214 | 4.0 | 10.0 | 125.90 | 0.00 | 0.00 | 68 | 1009.6 |
| 20260506060705 | 62 | 212 | 3.0 | 9.0 | 125.90 | 0.00 | 0.00 | 68 | 1009.5 |
| 20260506060513 | 62 | 243 | 3.0 | 9.0 | 125.90 | 0.00 | 0.00 | 68 | 1009.6 |
| 20260506051013 | 62 | 129 | 4.0 | 14.0 | 125.90 | 0.00 | 0.00 | 67 | 1009.8 |
| 20260506050513 | 62 | 172 | 3.0 | 8.0 | 125.90 | 0.00 | 0.00 | 67 | 1010.0 |
| 20260506045013 | 61 | 176 | 4.0 | 10.0 | 125.90 | 0.00 | 0.00 | 67 | 1010.0 |
| 20260506044513 | 61 | 186 | 3.0 | 9.0 | 125.90 | 0.00 | 0.00 | 67 | 1010.0 |
| 20260506044012 | 61 | 212 | 3.0 | 7.0 | 125.90 | 0.00 | 0.00 | 67 | 1010.0 |
| 20260506043512 | 62 | 222 | 1.0 | 9.0 | 125.90 | 0.00 | 0.00 | 67 | 1010.1 |
| 20260506043013 | 62 | 205 | 4.0 | 9.0 | 125.90 | 0.00 | 0.00 | 66 | 1010.1 |
| 20260506042512 | 62 | 218 | 3.0 | 9.0 | 125.90 | 0.00 | 0.00 | 67 | 1010.1 |
| 20260506042012 | 62 | 197 | 2.0 | 7.0 | 125.90 | 0.00 | 0.00 | 67 | 1010.0 |
| 20260506041513 | 62 | 211 | 3.0 | 7.0 | 125.90 | 0.00 | 0.00 | 66 | 1010.0 |
| 20260506041012 | 62 | 203 | 2.0 | 7.0 | 125.90 | 0.00 | 0.00 | 66 | 1010.0 |
| 20260506040512 | 62 | 181 | 3.0 | 7.0 | 125.90 | 0.00 | 0.00 | 65 | 1010.1 |
| 20260506040013 | 62 | 211 | 3.0 | 7.0 | 125.90 | 0.00 | 0.00 | 65 | 1010.1 |
| 20260506035512 | 62 | 183 | 2.0 | 4.0 | 125.90 | 0.00 | 0.00 | 64 | 1010.1 |
| 20260506035015 | 63 | 169 | 2.0 | 6.0 | 125.90 | 0.00 | 0.00 | 64 | 1010.1 |
| 20260506034513 | 63 | 217 | 3.0 | 8.0 | 125.90 | 0.00 | 0.00 | 63 | 1010.1 |
| 20260506034012 | 63 | 158 | 3.0 | 12.0 | 125.90 | 0.00 | 0.00 | 63 | 1010.0 |
| 20260506033512 | 63 | 204 | 3.0 | 8.0 | 125.90 | 0.00 | 0.00 | 62 | 1010.0 |
| 20260506033013 | 63 | 170 | 4.0 | 7.0 | 125.90 | 0.00 | 0.00 | 62 | 1010.1 |
| 20260506032512 | 64 | 215 | 3.0 | 8.0 | 125.90 | 0.00 | 0.00 | 62 | 1010.0 |
| 20260506032012 | 64 | 207 | 2.0 | 12.0 | 125.90 | 0.00 | 0.00 | 61 | 1010.0 |
| 20260506031012 | 64 | 210 | 4.0 | 12.0 | 125.90 | 0.00 | 0.00 | 61 | 1010.0 |
| 20260506030515 | 64 | 201 | 7.0 | 15.0 | 125.90 | 0.00 | 0.00 | 60 | 1010.0 |
| 20260506030014 | 64 | 159 | 4.0 | 12.0 | 125.90 | 0.00 | 0.00 | 60 | 1010.0 |
| 20260506025512 | 65 | 181 | 7.0 | 14.0 | 125.90 | 0.00 | 0.00 | 59 | 1010.0 |
| 20260506025012 | 65 | 218 | 5.0 | 13.0 | 125.90 | 0.00 | 0.00 | 60 | 1010.0 |
| 20260506024513 | 65 | 158 | 2.0 | 15.0 | 125.90 | 0.00 | 0.00 | 59 | 1010.0 |
| 20260506024012 | 65 | 177 | 5.0 | 12.0 | 125.90 | 0.00 | 0.00 | 59 | 1010.0 |
| 20260506023512 | 65 | 212 | 5.0 | 13.0 | 125.90 | 0.00 | 0.00 | 59 | 1009.9 |
| 20260506023013 | 65 | 198 | 3.0 | 10.0 | 125.90 | 0.00 | 0.00 | 58 | 1009.9 |
| 20260506022512 | 65 | 153 | 6.0 | 10.0 | 125.90 | 0.00 | 0.00 | 58 | 1009.9 |
| 20260506021513 | 66 | 226 | 4.0 | 9.0 | 125.90 | 0.00 | 0.00 | 57 | 1009.9 |